Weather History for KTMK - March, 2013

Change the Weather History Date:

Tuesday, March 5, 2013

  Actual Average (KMMV) Record (KMMV)
Temperature  
Mean Temperature 42 °F 45 °F  
Max Temperature 46 °F 54 °F 68 °F (1965)
Min Temperature 39 °F 36 °F 23 °F (1920)
Degree Days  
Heating Degree Days 22 20  
Month to date heating degree days 102  
Since 1 July heating degree days 3481  
Cooling Degree Days 0 0  
Month to date cooling degree days 0  
Year to date cooling degree days 0  
Moisture  
Dew Point 42 °F    
Average Humidity 94    
Maximum Humidity 100    
Minimum Humidity 87    
Precipitation  
Precipitation 0.30 in 0.13 in 1.25 in (1919)
Month to date precipitation 0.61  
Year to date precipitation 11.15  
Sea Level Pressure  
Sea Level Pressure 29.80 in    
Wind  
Wind Speed 1 mph (SW)    
Max Wind Speed 7 mph    
Max Gust Speed -    
Visibility 8 miles    
Events Rain    
T = Trace of Precipitation, MM = Missing Value Source: NWS Daily Summary

Daily Weather History Graph

Daily Weather History Graph

Search for Another Location

Airport or City:

Trip Planner

Search our weather history database for the weather conditions in past years. The results will help you decide how hot, cold, wet, or windy it might be!

Date:

Astronomy

Mar. 05, 2013 Rise Set
Actual Time 7:45 AM MST 7:08 PM MST
Civil Twilight 7:16 AM MST 7:37 PM MST
Nautical Twilight 6:41 AM MST 8:12 PM MST
Astronomical Twilight 6:07 AM MST 8:46 PM MST
Moon 3:16 AM MST (3/5) 12:40 PM MST (3/5)
Length of Visible Light 12h 21m
Length of Day
11h 22m
Last Quarter, 40% of the Moon is Illuminated
Mar 5
Last Quarter
Mar 11
New
Mar 19
First Quarter
Mar 27
Full
Apr 2
Last Quarter

Hourly Weather History & Observations

Time (MST) Temp. Windchill Dew Point Humidity Pressure Visibility Wind Dir Wind Speed Gust Speed Precip Events Conditions
12:15 AM 39.2 °F - 37.4 °F 93% 29.90 in 7.0 mi Calm Calm - N/A   Mostly Cloudy
12:35 AM 39.2 °F - 39.2 °F 100% 29.90 in 7.0 mi Calm Calm - N/A   Overcast
12:55 AM 41.0 °F 39.0 °F 39.2 °F 93% 29.89 in 10.0 mi SE 3.5 mph - N/A   Overcast
1:15 AM 41.0 °F - 39.2 °F 93% 29.89 in 10.0 mi Calm Calm - N/A   Overcast
1:35 AM 41.0 °F - 39.2 °F 93% 29.88 in 10.0 mi Calm Calm - N/A   Overcast
1:55 AM 41.0 °F 39.0 °F 39.2 °F 93% 29.88 in 10.0 mi SE 3.5 mph - N/A   Overcast
2:15 AM 41.0 °F 39.0 °F 39.2 °F 93% 29.87 in 10.0 mi East 3.5 mph - N/A   Overcast
2:35 AM 41.0 °F - 39.2 °F 93% 29.86 in 10.0 mi Calm Calm - N/A   Overcast
2:55 AM 41.0 °F 39.0 °F 39.2 °F 93% 29.86 in 10.0 mi WSW 3.5 mph - N/A   Drizzle
3:15 AM 41.0 °F - 39.2 °F 93% 29.86 in 7.0 mi Calm Calm - N/A Rain Light Rain
3:35 AM 42.8 °F 41.1 °F 41.0 °F 93% 29.85 in 7.0 mi NE 3.5 mph - 0.02 in Rain Light Rain
3:55 AM 42.8 °F - 41.0 °F 93% 29.85 in 10.0 mi Calm Calm - 0.03 in Rain Light Rain
4:15 AM 41.0 °F - 41.0 °F 100% 29.85 in 7.0 mi Calm Calm - 0.01 in Rain Light Rain
4:35 AM 42.8 °F - 41.0 °F 93% 29.84 in 10.0 mi Calm Calm - 0.01 in Rain Rain
4:55 AM 41.0 °F - 41.0 °F 100% 29.83 in 10.0 mi Calm Calm - 0.02 in Rain Light Rain
5:15 AM 42.8 °F - 39.2 °F 87% 29.83 in 7.0 mi Calm Calm - 0.01 in Rain Light Rain
6:15 AM 41.0 °F - 41.0 °F 100% 29.83 in 5.0 mi Calm Calm - 0.02 in Rain Light Rain
6:35 AM 41.0 °F - 41.0 °F 100% 29.83 in 7.0 mi Calm Calm - 0.04 in Rain Light Rain
6:55 AM 41.0 °F - 41.0 °F 100% 29.83 in 5.0 mi Calm Calm - 0.06 in Rain Rain
7:15 AM 42.8 °F - 41.0 °F 93% 29.83 in 7.0 mi Calm Calm - 0.02 in Rain Light Rain
7:35 AM 42.8 °F - 41.0 °F 93% 29.83 in 7.0 mi Calm Calm - 0.04 in Rain Light Rain
7:55 AM 42.8 °F - 41.0 °F 93% 29.82 in 5.0 mi Calm Calm - 0.05 in Rain Light Rain
8:15 AM 42.8 °F - 41.0 °F 93% 29.82 in 7.0 mi Calm Calm - N/A   Light Drizzle
8:35 AM 42.8 °F - 41.0 °F 93% 29.83 in 7.0 mi Calm Calm - N/A   Drizzle
8:55 AM 42.8 °F - 42.8 °F 100% 29.83 in 5.0 mi Calm Calm - 0.01 in   Drizzle
9:15 AM 42.8 °F - 41.0 °F 93% 29.83 in 7.0 mi Calm Calm - N/A   Drizzle
9:35 AM 42.8 °F 41.1 °F 42.8 °F 100% 29.83 in 7.0 mi ENE 3.5 mph - N/A Rain Rain
9:55 AM 42.8 °F - 42.8 °F 100% 29.83 in 10.0 mi Calm Calm - N/A   Light Drizzle
10:15 AM 42.8 °F - 42.8 °F 100% 29.82 in 10.0 mi Calm Calm - 0.01 in   Light Drizzle
10:35 AM 44.6 °F - 42.8 °F 93% 29.82 in 10.0 mi Calm Calm - 0.01 in   Light Drizzle
10:55 AM 44.6 °F - 42.8 °F 93% 29.82 in 10.0 mi Calm Calm - 0.01 in   Light Drizzle
11:15 AM 44.6 °F - 42.8 °F 93% 29.82 in 10.0 mi Calm Calm - N/A   Drizzle
11:35 AM 44.6 °F - 42.8 °F 93% 29.82 in 7.0 mi Calm Calm - N/A Rain Light Rain
11:55 AM 44.6 °F - 42.8 °F 93% 29.81 in 7.0 mi Calm Calm - 0.01 in Rain Rain
12:15 PM 46.4 °F - 42.8 °F 87% 29.80 in 7.0 mi Calm Calm - N/A   Drizzle
12:35 PM 46.4 °F - 42.8 °F 87% 29.81 in 7.0 mi Calm Calm - 0.01 in   Drizzle
12:55 PM 46.4 °F - 42.8 °F 87% 29.80 in 7.0 mi Calm Calm - 0.01 in Rain Light Rain
1:15 PM 46.4 °F - 42.8 °F 87% 29.80 in 10.0 mi Calm Calm - 0.02 in Rain Light Rain
1:35 PM 46.4 °F 45.2 °F 42.8 °F 87% 29.80 in 7.0 mi West 3.5 mph - 0.02 in   Drizzle
1:55 PM 46.4 °F 43.5 °F 44.6 °F 93% 29.81 in 7.0 mi WNW 5.8 mph - 0.03 in Rain Rain
2:15 PM 46.4 °F 44.3 °F 44.6 °F 93% 29.80 in 5.0 mi West 4.6 mph - 0.02 in Rain Light Rain
2:35 PM 46.4 °F 44.3 °F 44.6 °F 93% 29.79 in 10.0 mi West 4.6 mph - 0.03 in Rain Light Rain
2:55 PM 46.4 °F - 44.6 °F 93% 29.79 in 7.0 mi Calm Calm - 0.03 in Rain Rain
3:15 PM 46.4 °F 42.9 °F 42.8 °F 87% 29.78 in 10.0 mi WSW 6.9 mph - 0.01 in Rain Light Rain
3:35 PM 46.4 °F 43.5 °F 42.8 °F 87% 29.78 in 10.0 mi WSW 5.8 mph - 0.01 in Rain Light Rain
3:55 PM 46.4 °F 43.5 °F 42.8 °F 87% 29.78 in 10.0 mi SSW 5.8 mph - 0.01 in   Light Drizzle
4:15 PM 46.4 °F 42.9 °F 42.8 °F 87% 29.78 in 10.0 mi SW 6.9 mph - N/A   Light Drizzle
4:35 PM 44.6 °F 43.1 °F 42.8 °F 93% 29.78 in 10.0 mi SW 3.5 mph - N/A   Drizzle
4:55 PM 44.6 °F 42.2 °F 42.8 °F 93% 29.78 in 7.0 mi SW 4.6 mph - N/A   Drizzle
5:15 PM 44.6 °F - 42.8 °F 93% 29.77 in 7.0 mi Calm Calm - N/A   Light Drizzle
5:35 PM 44.6 °F - 42.8 °F 93% 29.77 in 4.0 mi Calm Calm - N/A   Drizzle
5:55 PM 44.6 °F - 42.8 °F 93% 29.77 in 2.5 mi Calm Calm - 0.01 in   Drizzle
6:15 PM 44.6 °F - 42.8 °F 93% 29.76 in 2.5 mi Calm Calm - N/A   Drizzle
6:35 PM 44.6 °F - 42.8 °F 93% 29.76 in 3.0 mi Calm Calm - N/A   Overcast
6:55 PM 44.6 °F - 42.8 °F 93% 29.76 in 4.0 mi Calm Calm - N/A   Light Drizzle
7:15 PM 44.6 °F - 42.8 °F 93% 29.75 in 10.0 mi Calm Calm - 0.01 in   Overcast
7:35 PM 44.6 °F - 42.8 °F 93% 29.75 in 7.0 mi Calm Calm - 0.01 in   Light Drizzle
7:55 PM 44.6 °F - 42.8 °F 93% 29.74 in 10.0 mi Calm Calm - 0.01 in   Overcast
8:15 PM 44.6 °F - 42.8 °F 93% 29.73 in 10.0 mi Calm Calm - N/A   Overcast
8:35 PM 42.8 °F - 42.8 °F 100% 29.73 in 10.0 mi Calm Calm - N/A   Overcast
8:55 PM 42.8 °F - 42.8 °F 100% 29.72 in 10.0 mi Calm Calm - N/A   Overcast
9:15 PM 42.8 °F - 42.8 °F 100% 29.71 in 10.0 mi Calm Calm - N/A   Overcast
9:35 PM 42.8 °F - 42.8 °F 100% 29.70 in 5.0 mi Calm Calm - N/A   Overcast
9:55 PM 42.8 °F - 42.8 °F 100% 29.70 in 3.0 mi Calm Calm - N/A   Overcast
10:15 PM 42.8 °F - 42.8 °F 100% 29.69 in 4.0 mi Calm Calm - N/A   Drizzle
10:35 PM 42.8 °F - 42.8 °F 100% 29.69 in 4.0 mi Calm Calm - N/A   Drizzle
10:55 PM 42.8 °F - 42.8 °F 100% 29.68 in 4.0 mi Calm Calm - N/A   Drizzle
11:15 PM 42.8 °F - 42.8 °F 100% 29.68 in 5.0 mi Calm Calm - N/A   Light Drizzle
11:35 PM 42.8 °F - 42.8 °F 100% 29.67 in 10.0 mi Calm Calm - N/A   Overcast
11:55 PM 42.8 °F - 42.8 °F 100% 29.65 in 5.0 mi Calm Calm - N/A   Overcast